Location: Creston
(40.9870°N, 81.8938°W)
Time: 08:42:58
(UTC+00:00)

Feng Yun 1-1 Rocket - Pass Details

Date: 29 October 2020
Orbit: 829 x 934 km, 99.2° (Epoch: 27 November)

Event Time Altitude Azimuth Distance (km) Brightness Sun altitude
Rises 23:27:33 0° 164° (SSE) 3,553 7.4 -12.1°
Reaches altitude 10° 23:29:57 10° 164° (SSE) 2,622 6.7 -12.5°
Maximum altitude 23:35:51 90° 89° (E) 939 4.4 -13.6°
Drops below altitude 10° 23:41:49 10° 346° (NNW) 2,648 6.9 -14.7°
Sets 23:44:15 0° 346° (NNW) 3,591 7.6 -15.2°
